Starlink 35240

operational
NORAD ID: 65655 Int'l Des: 2025-211 Owner: SPXS Country: US Constellation: starlink
NOTLE

About Starlink 35240

Description loading...

Live Position

Loading 3D Globe...

Upcoming Passes

Altitude History

Altitude vs Time

uPlot chart will show altitude changes over time

Two-Line Element Set

1 65655U 25211D 25338.68681333 .00008433 00000-0 58778-3 0 9993
2 65655 97.6015 20.3667 0000468 78.9218 281.2061 15.05660749 12741
Epoch: Dec 4, 2025 • Age: 10 hours

Current Status

Altitude 551.8 km
Velocity 7.59 km/s
Sub-Earth Point 17.89°N, 87.82°W
Launch Date Sep 19, 2025
Age 0.2 years
Type internet

Technical Details

Classification Payload
Mass 575.00 kg
Dry Mass 530.00 kg
Total Mass 575.00 kg
Length 0.30 m
Diameter 4.10 m
Span 29.00 m
Shape Box + pan
Manufacturer SPXS
Bus Type Starlink V2MO
Phase Status In Orbit
Owner/State SPXS/US

Large Constellations

Loading constellations...